Weather in Bile

Ukraine / Luhansk Region     48°29′46″N   39°03′00″E
temp.,
°C
wind,
m/s
gust,
m/s
humid.,
%
clouds,
%
prec.,
mm/h
press.,
hPa
HPBL,
m
9 may, sun
sun900:00+13wnw61089100 1.1 1008446
03:00+8nw71387100 1.1 1011594
06:00+7nw61088100 1.3 1011776
09:00+7nw81173100 1.4 10141066
12:00+9nnw9116599 0.0 10151388
15:00+11nw91157100 0.1 10171660
18:00+10n81056100 0.1 10181462
21:00+8nw51064100 0.1 1021363
10 may, mon
mon1000:00+7wnw51169100 0.0 1021436
03:00+5nw61177100 0.0 1022413
06:00+6nw61274100 0.0 1022574
09:00+10nnw101558100 0.0 10201570
12:00+11nnw81359100 0.0 10191987
15:00+10nnw91563100 0.1 10171550
18:00+8nnw101783100 1.9 10151291
21:00+7nnw111891100 5.1 1011942
11 may, tue
tue1100:00+9n101695100 4.4 10071057
03:00+7ne71292100 4.5 1010931
06:00+6ne61188100 0.1 1011963
09:00+7ne81288100 0.3 10121041
12:00+7ne81389100 0.4 10121291
15:00+7ne71094100 2.3 1009839
18:00+7ese81189100 0.2 10151179
21:00+7ese7129099 0.4 1017678
12 may, wed
wed1200:00+7se81288100 0.1 1018731
03:00+7se71491100 0.4 1018749
06:00+7ese81392100 1.0 1019663
09:00+8se71285100 1.1 1019688
12:00+13se686786 0.1 10191281
15:00+14s4662100 0.1 1018775
18:00+16se386597 0.0 1017722
21:00+11se36865 0.0 101885
13 may, thu
thu1300:00+10ese33875 0.0 101726
03:00+9ese22890 0.0 101717
06:00+10ese23845 0.0 101883
09:00+17ese575936 0.0 1017568
12:00+21ese6648100 0.0 10161252
15:00+22ese674698 0.0 10161324
18:00+20ese5963100 0.0 1015423
21:00+15ese410865 0.0 1016167